Orbital Elements at Epoch 2459200.5 (2020-Dec-17.0) TDB
Reference: JPL 13 (heliocentric ecliptic J2000)
Element | Value | Uncertainty (1-sigma) | Units |
e | .08385384150855366 | 5.4366e-08 | |
a | 2.715830446103819 | 2.1538e-08 | au |
q | 2.488097630312125 | 1.4569e-07 | au |
i | 2.665628090135157 | 4.9584e-06 | deg |
node | 106.0625082234045 | 0.00016291 | deg |
peri | 318.7277849890485 | 0.00017481 | deg |
M | 99.40640827216892 | 6.1418e-05 | deg |
tp | 2458749.097159666342 (2019-Sep-22.59715967) | 0.00027831 | TDB |
period | 1634.753989654146 4.48 | 1.9446e-05 5.324e-08 | d yr |
n | .2202166211419755 | 2.6196e-09 | deg/d |
Q | 2.943563261895513 | 2.3344e-08 | au |
|
| | Orbit Determination Parameters
Additional Information
|